User: anonymous   Login
Location: Unspecified
(0.0000°N, 0.0000°E)
Time: 12:19:00
(UTC+02:00)
Language:

PSLV R/B - Orbit

View from above orbital plane
View from above orbital plane
View from above satellite
View from above satellite

Ground track
Ground track

The orbit data is extracted from the following two-line orbital elements,

1 29713U 07001E   16236.13002065  .00000295  00000-0  40829-4 0  9998
2 29713  97.7238 210.9333 0025284 357.7095   2.4000 14.84851014519836
Epoch (UTC): 23 August 2016 03:07:13
Eccentricity: 0.0025284
inclination: 97.7238°
perigee height: 596 km
apogee height: 632 km
right ascension of ascending node: 210.9333°
argument of perigee: 357.7095°
revolutions per day: 14.84851014
mean anomaly at epoch: 2.4000°
orbit number at epoch: 51983

The dashed part of the orbit path shows where the satellite is in the earth's shadow,  

DLR